Regional Weather Roundup
Issued by NWS

Home | Current Version | Previous Version | Text Only | Print | Product List | Glossary On
Versions: 1 2 3 4 5 6 7 8 9 10 11 12 13 14 15 16 17 18 19 20 21 22 23 24 25 26 27 28 29 30 31 32 33 34 35 36 37 38 39 40 41 42 43 44 45 46 47 48 49 50
000
ASUS44 KFWD 190715
RWRTX
NORTH TEXAS HOURLY WEATHER ROUNDUP
NATIONAL WEATHER SERVICE FORT WORTH TX
100 AM CST MON FEB 19 2018

NOTE: "FAIR" INDICATES FEW OR NO CLOUDS BELOW 12,000 FEET WITH NO
SIGNIFICANT WEATHER AND/OR OBSTRUCTIONS TO VISIBILITY.

TXZ118-119-190800-
DALLAS/FORT WORTH METROPLEX

CITY           SKY/WX    TMP DP  RH WIND       PRES   REMARKS
DFW AIRPORT    MOCLDY    68  62  81 S22G29    29.84F
DALLAS LOVE    MOCLDY    64  61  90 S17       29.85F
FTW MEACHAM    MOCLDY    66  62  87 S16G26    29.83F
DAL-EXECUTIVE  MOCLDY    66  62  87 S17G33    29.85F
FTW-ALLIANCE   CLOUDY    63  61  93 S15G24    29.83F
FTW-NAS-JRB    MOCLDY    67  60  78 S20G25    29.84F
FTW-SPINKS     MOCLDY    65  61  86 S17G23    29.87S FOG
ARLINGTON      MOCLDY    65  62  90 S18G26    29.85F
GRAND PRAIRIE  FAIR      65  61  85 SE14G21   29.87F
ADDISON        FAIR      64  60  88 S16G22    29.87F
MESQUITE       FAIR      64  62  93 S13G18    29.89F
LANCASTER      FAIR      63  61  94 S10       29.89F
$$

TXZ091>094-102>105-117-120-121-131>134-190800-
NORTH CENTRAL TEXAS

CITY           SKY/WX    TMP DP  RH WIND       PRES   REMARKS
SHRMAN/DENISON FAIR      63  61  94 S22       29.85F
GAINESVILLE    CLOUDY    60  59  97 S13       29.85F FOG
BOWIE          CLOUDY    61  60  94 SE14G20   29.81F
BRIDGEPORT     FAIR      63  60  89 S13G18    29.84F
DECATUR        CLOUDY    62  60  93 S15G23    29.82F
DENTON         FAIR      62  61  96 S12       29.83F
MCKINNEY       FAIR      63  63 100 S14       29.86F
BONHAM         FAIR      62  60  95 S16       29.88S
GREENVILLE     MOCLDY    68  64  88 S15       29.90F
ROCKWALL       FAIR      65  64  97 S13G22    29.88F
TERRELL        TSTM      66  62  87 S15       29.90F
WAXAHACHIE     CLOUDY    65  63  96 S17G23    29.89S
CLEBURNE       CLOUDY    64  64 100 S21G26    29.87F
GRANBURY       FAIR      64  61  90 SE13G18   29.84F
$$

TXZ083>090-098>101-113>116-127>130-139>142-154-155-190800-
WESTERN NORTH TEXAS

CITY           SKY/WX    TMP DP  RH WIND       PRES   REMARKS
WICHITA FALLS  FAIR      64  59  83 S16       29.76F
WF-KICKAPOO    MOCLDY    64  60  87 SE15G21   29.79S
VERNON         FAIR      67  55  66 S17       29.75R
ABILENE        FAIR      62  60  93 S15       29.79F
ABILENE-DYESS  FAIR      62  61  95 S16       29.79S
GRAHAM           N/A     65  64  94 SE10      29.78F
BRECKENRIDGE   FAIR      66  59  77 S13G21    29.79S
CISCO          FAIR      64  61  88 S20       29.81F
EASTLAND       FAIR      62  58  90 S10       29.82S
RANGER         FAIR      63  59  88 S12G21    29.83S
MINERAL WELLS  FAIR      60  58  92 SE15      29.80F
STEPHENVILLE   FAIR      62  59  89 S12       29.87F
COMANCHE       FAIR      65  59  79 S16G24    29.83F
COLEMAN        FAIR      61  58  92 S7        29.83F
$$

TXZ143>147-156>162-174-175-190800-
CENTRAL TEXAS

CITY           SKY/WX    TMP DP  RH WIND       PRES   REMARKS
WACO           CLOUDY    66  60  81 S21       29.90S
WACO-MCGREGOR  CLOUDY    67  62  84 S20       29.89F
HILLSBORO      LGT RAIN  66  64  92 S21G28    29.88F
CORSICANA      CLOUDY    67  62  84 S18G25    29.92F
MEXIA          CLOUDY    66  61  82 S22G31    29.92R
HEARNE         CLOUDY    67  65  91 SE13G20   29.95S
CAMERON        CLOUDY    69  64  82 S18G24    29.92S
TEMPLE         CLOUDY    67  63  87 S15       29.90F
KILLEEN        CLOUDY    66  63  88 S18       29.87F
KILLEEN-SKYLRK CLOUDY    67  63  87 S15G23    29.90F
FORT HOOD      CLOUDY    66  62  88 S15G22    29.86F
GATESVILLE     FAIR      66  63  88 SE14      29.89F
HAMILTON       FAIR      65  62  89 S21G26    29.86F
LAMPASAS       MOCLDY    65  61  85 S12       29.88S
$$

TXZ095>097-106>112-122>126-135>138-148>153-164>167-190800-
EAST TEXAS

CITY           SKY/WX    TMP DP  RH WIND       PRES   REMARKS
PARIS          FAIR      59  59 100 SE12      29.91F FOG
SULPHUR SPRNGS RAIN      66  64  92 S13G22    29.92F
MOUNT PLEASANT FAIR      63  62  96 SE8       29.96F
GILMER         CLOUDY    65  62  87 S8        29.96R
MINEOLA        MOCLDY    66  63  88 S10G23    29.93S
TYLER          FAIR      67  62  84 S17       29.94S
LONGVIEW       CLOUDY    67  64  90 S12       29.96F
MARSHALL       CLOUDY    65  62  89 S9        30.00S
ATHENS         CLOUDY    63  59  88 S18G24    29.92S
PALESTINE      MOCLDY    67  63  85 SE10G23   29.95F
JACKSONVILLE   CLOUDY    66  63  89 S13       29.97S
CENTER         CLOUDY    66  62  86 S16G24    30.01F
NACOGDOCHES    CLOUDY    67  63  87 S12G20    29.99F
LUFKIN         MOCLDY    66  63  90 SE12      29.99F
$$

SUPPLEMENTAL OBSERVATIONS (NWS FORT WORTH AREA)

CITY           SKY/WX    TMP DP  RH WIND       PRES   REMARKS
DENISON DAM      N/A     64  63  94 S12         N/A
PAT MAYSE LAKE   N/A     59  59 100 SE13        N/A
POSSUM KINGDOM   N/A     64  57  77 S12G20      N/A
GRANBURY         N/A     63  59  88 SE15        N/A
COMANCHE         N/A     66  57  72 S18G26      N/A
TEMPLE           N/A     68  63  83 S14G22      N/A
LAKE LIMESTONE   N/A     68  63  83 S14G24      N/A
ATHENS           N/A     66  61  82 S15G23      N/A
$$

SUPPLEMENTAL OBSERVATIONS (NWS NORMAN AREA)

CITY           SKY/WX    TMP DP  RH WIND       PRES   REMARKS
GOODLETT         N/A     67  57  70 S24G30    29.71R
ODELL            N/A     66  60  79 S20       29.74R
CROWELL          N/A     66  59  78 S16       29.75S
KNOX CITY        N/A     65  57  76 S12       29.78R
SEYMOUR          N/A     64  58  81 S12       29.77F
MILLERS CREEK    N/A     63  57  82 S7          N/A
$$

SUPPLEMENTAL OBSERVATIONS (NWS SAN ANGELO AREA)

CITY           SKY/WX    TMP DP  RH WIND       PRES   REMARKS
WEINERT          N/A     63  58  81 S13       29.78R
HASKELL          N/A     62  56  81 S8        29.78S
THROCKMORTON     N/A     63  60  91 S6        29.79F
STAMFORD         N/A     62  59  89 S7        29.79R
CLYDE            N/A     61  60  96 S17       29.82S
HAMBY            N/A     63  57  82 S17         N/A
IVIE RESERVOIR   N/A     66  59  77 S14         N/A
COLORADO BEND    N/A     64  61  88 S13G24      N/A
$$

SUPPLEMENTAL OBSERVATIONS (NWS SHREVEPORT AREA)

CITY           SKY/WX    TMP DP  RH WIND       PRES   REMARKS
CLARKSVILLE      N/A    N/A N/A N/A S10         N/A
TEXARKANA        N/A     64  63  94 S6          N/A
LINDEN           N/A     64  59  82 SE9G17      N/A
CADDO LAKE       N/A     64  61  88 S2          N/A
GILMER           N/A     66  63  88 S8          N/A
HENDERSON        N/A     66  61  82 S9G17       N/A
LUFKIN           N/A     66  63  88 MISG        N/A
N SABINE NF      N/A     66  63  88 MISG        N/A
S SABINE NF      N/A     66  61  82 SW3         N/A
$$

SUPPLEMENTAL OBSERVATIONS ARE A COLLECTION OF AUTOMATED INSTRUMENTS
THAT ARE MAINTAINED BY A VARIETY OF FEDERAL AND STATE AGENCIES.
CERTAIN ELEMENTS...SUCH AS HUMIDITY VALUES AND SUSTAINED WIND
SPEEDS...MAY BE APPROXIMATED.




USA.gov is the U.S. government's official web portal to all federal, state and local government web resources and services.